STARLINK-11439 [DTC]

Last updated on Thu Jan 23 2025 00:02:04 GMT+0000 (Coordinated Universal Time)

1 62419U 24249L 25022.46611039 .00001224 00000+0 98989-5 0 9990 2 62419 42.9986 127.4780 0001712 259.6004 100.4674 15.77855356 4792
UTC large
Height (km)
Speed (km/s)
/
Latitude / Longitude
Inclination (degrees)
Orbital Period (minutes)
Azimuth
Elevation
Range (km)
Doppler Factor

Next 0 passes for location: London (51.5072 / 0.1276)

Sorry there are no passes over London.